Regional Weather Roundup
Issued by NWS Grand Forks, ND

Home | Current Version | Previous Version | Graphics & Text | Print | Product List | Glossary On
Versions: 1 2 3 4 5 6 7 8 9 10 11 12 13 14 15 16 17 18 19 20 21 22 23 24 25 26 27 28 29 30 31 32 33 34 35 36 37 38 39 40 41 42 43 44 45 46 47 48 49 50
000
ASUS43 KFGF 041610
RWRFGF
PRAIRIE TO PINES  WEATHER ROUNDUP
NATIONAL WEATHER SERVICE EASTERN NORTH DAKOTA/GRAND FORKS ND
1100 AM CDT FRI SEP 04 2015

 **SATELLITE DATA USED TO AUGMENT SKY COVER AT AUTOMATED STATIONS**
 *****  WEATHER ACROSS EASTERN NORTH DAKOTA  *****

CITY           SKY/WX    TMP DP  RH WIND       PRES   REMARKS
GRAND FORKS    CLOUDY    77  71  82 S8        29.76S
GRAND FRKS AFB CLOUDY    77  72  83 SE10      29.77S
GRAND FRKS NWS   N/A     75 N/A N/A S10         N/A
DEVILS LAKE    CLOUDY    75  68  78 SE7       29.76R
FARGO          PTSUNNY   82  71  69 S18G24    29.78R
WAHPETON ARPT  CLOUDY    81  68  65 S13       29.82R
$$

 ***** WEATHER ACROSS CENTRAL AND WESTERN NORTH DAKOTA  *****

CITY           SKY/WX    TMP DP  RH WIND       PRES   REMARKS
BISMARCK       CLOUDY    76  71  85 CALM      29.76R
MINOT          CLOUDY    67  58  72 N10       29.83R
JAMESTOWN      TSTM      74  70  87 SW17G23   29.75F FOG
MINOT AFB      CLOUDY    68  63  83 N15       29.81R
GARRISON         N/A     70  63  78 N16G23    29.81R
WILLISTON      CLOUDY    64  53  67 N17       29.88R
DICKINSON      CLOUDY    67  63  87 N3        29.83R
HETTINGER      PTSUNNY   73  62  68 N12       29.81S
$$

 *****  OTHER AIRPORT OBSERVATIONS IN OUR AREA  *****

CITY           SKY/WX    TMP DP  RH WIND       PRES   REMARKS
WALHALLA       FAIR      75  75 100 MISG      29.80S FOG
GRAFTON AIRPOR CLOUDY    75  73  94 SE8       29.79S
VALLEY CITY AR PTSUNNY   75  75 100 S13       29.78F
CANDO          NOT AVBL
CAVALIER APRT  CLOUDY    73  73 100 E3        29.80S FOG
GWINNER          N/A     75  75 100 SW10      29.80R
SHEYENNE NWR     N/A     78  71  80 S9        29.95
ROLLA          CLOUDY    63  63 100 N12       29.85R FOG
 ***** THE ABOVE OBSERVATIONS ARE NON NWS ARE NOT QUALITY
       CONTROLLED AND MAY MIS-REPORT RAIN FOR SNOW...
$$

  *****  WEATHER ACROSS NORTHERN MINNESOTA  *****

CITY           SKY/WX    TMP DP  RH WIND       PRES   REMARKS
FLAG ISLAND    CLOUDY    70  64  83 E6        29.88S
WARROAD        CLOUDY    70  64  83 E9        29.88S
ROSEAU         PTSUNNY   72  66  83 E10       29.86R
HALLOCK        CLOUDY    79  72  78 E6        29.81R
THF RVR FALLS  MOSUNNY   77  72  83 SE13      29.82S
BAUDETTE       SUNNY     75  66  73 SE14G21   29.88F
WASKISH        PTSUNNY   75  68  78 E13       29.89R
CROOKSTON      MOSUNNY   81  72  74 SE10      29.79R
STEPHEN NDAWN    N/A     81  72  74 S6          N/A
GREENBUSH NDAW   N/A     77  70  78 E7          N/A
$$
  *****  WEATHER ACROSS CENTRAL AND WEST MINNESOTA  *****

CITY           SKY/WX    TMP DP  RH WIND       PRES   REMARKS
FOSSTON        SUNNY     79  66  65 SE12      29.83S
BEMIDJI        CLOUDY    71  66  85 SE17      29.88R
PARK RAPIDS    CLOUDY    75  67  76 SE15      29.88S
ELBOW LAKE     FAIR      79  71  75 S15       29.85R HAZE
WADENA         CLOUDY    73  70  88 SE12      29.87S
DETROIT LAKES  CLOUDY    75  70  83 SE14G21   29.85R
MOORHEAD       PTSUNNY   81  70  69 S16G25    29.80R
FERGUS FALLS   PTSUNNY   81  70  69 S13       29.82R
MORRIS MN      PTSUNNY   81  70  69 S14       29.84R
STAPLES        CLOUDY    73  68  83 SE8       29.88S
$$
  *****  WEATHER ELSEWHERE ACROSS MINNESOTA  *****

CITY           SKY/WX    TMP DP  RH WIND       PRES   REMARKS
DULUTH         MOSUNNY   70  63  78 SE12      29.99F
INTRNTL FALLS  SUNNY     76  66  71 SE12      29.94S
ELY            SUNNY     75  61  60 SE13      30.02R
CLOQUET        CLOUDY    68  61  77 SE9       29.98F
WHEATON        CLOUDY    75  68  78 S7        29.84R
BRAINERD       SUNNY     78  68  71 SE13      29.90F
HIBBING        CLOUDY    74  65  73 SE14      29.97F
ALEXANDRIA     MOSUNNY   81  71  71 S15       29.88R
SAINT CLOUD    MOSUNNY   79  71  76 SE14      29.89F
MINNEAPOLIS    SUNNY     78  70  76 SE12      29.93F
$$

  *****  WEATHER ACROSS SOUTH DAKOTA  *****

CITY           SKY/WX    TMP DP  RH WIND       PRES   REMARKS
SIOUX FALLS    PTSUNNY   79  69  71 S6        29.86F
BROOKINGS      PTSUNNY   79  70  73 S8        29.90S
WATERTOWN      LGT RAIN  71  63  75 SW13      29.86F
HURON          CLOUDY    74  69  85 SE7       29.81R
SISSETON         N/A     77  69  76 S8        29.82R
ABERDEEN       CLOUDY    73  67  81 S10       29.82R
MITCHELL       CLOUDY    80  67  64 S12       29.81S
PIERRE         SUNNY     78  67  68 SE10      29.76S
MOBRIDGE       CLOUDY    74  68  81 S7        29.76R
RAPID CITY     SUNNY     78  55  44 CALM      29.83R
$$

  *****  SOME WEATHER IN NEARBY STATES *****

CITY           SKY/WX    TMP DP  RH WIND       PRES   REMARKS
GLASGOW MT     CLOUDY    63  43  48 NE26G32   29.92F
GREAT FALLS MT LGT RAIN  50  48  93 E8        29.99R
CHEYENNE WY    SUNNY     79  38  22 W17       30.06S
SCOTTSBLUFF NE SUNNY     74  54  49 VRB3      29.93R
OMAHA NE       CLOUDY    80  69  69 S12       29.90F
DES MOINES IA  PTSUNNY   85  70  60 S13       29.96F
DAVENPORT IA   SUNNY     84  71  65 CALM      30.02S
CHICAGO IL     MOSUNNY   76  66  71 VRB3      30.03S
EAU CLAIRE WI  PTSUNNY   77  66  68 E9        30.00F
LA CROSSE WI   SUNNY     81  69  67 S8        29.99F
$$

  *****  SOME NATIONAL WEATHER *****

CITY           SKY/WX    TMP DP  RH WIND       PRES   REMARKS
LA GUARDIA NY  CLOUDY    79  67  66 NE16      30.08R
RALEIGH NC     MOSUNNY   88  70  55 CALM      30.02S HX  93
ATLANTA GA     MOSUNNY   86  70  58 CALM      30.04S HX  90
NEW ORLEANS LA PTSUNNY   87  74  64 NE8       30.01R HX  95
OKLAHOMA CITY  MOSUNNY   86  69  56 S16G22    29.99R HX  90
ALBUQUERQUE NM CLOUDY    72  52  49 W3        30.14R
SALT LAKE CITY PTSUNNY   79  36  21 S25G33    29.86S
LOS ANGELES CA PTSUNNY   70  56  61 E7        29.89S
BOISE ID       SUNNY     54  40  59 W3        29.84F
SEATTLE WA     CLOUDY    54  46  76 N8        30.02S
$$

*** WEATHER ACROSS MANITOBA...SASKATCHEWAN AND ONTARIO ***
                ***ONTARIO***

CITY           SKY/WX    TMP DP  RH WIND       PRES   REMARKS
GERALDTON      PTSUNNY   77  61  57 SW8       30.12S
THUNDER BAY    MOSUNNY   73  61  64 E9        30.08R
SIOUX LOOKOUT  PTSUNNY   75  64  69 S10G18    29.99F
TORONTO        PTSUNNY   79  64  61 E15       30.12R
BIG TROUT LK   LGT RAIN  64  63  94 SE5       29.92R
PICKLE LAKE    CLOUDY    73  63  68 S13G23    30.00F
DRYDEN         MOSUNNY   75  63  64 S13       29.98F
KENORA         PTSUNNY   75  68  78 S10       29.92S
$$
                *** MANITOBA***

CITY           SKY/WX    TMP DP  RH WIND       PRES   REMARKS
BRANDON        CLOUDY    68  59  73 NE23      29.86R
DAUPHIN        MOSUNNY   57  54  88 N5        29.94S
ISLAND LAKE    NOT AVBL
PILOT MOUND      N/A     64  63  94 N14G20      N/A
THE PAS        PTSUNNY   59  46  63 N5        30.02R
THOMPSON       PTSUNNY   57  48  72 NW7       29.95S
WINNIPEG       CLOUDY    73  72  94 SE14      29.83R
LYNN LAKE      MOSUNNY   54  45  71 NW10      29.96R
GILLAM         CLOUDY    61  48  63 NW8       29.89F
$$
                ***SASKATCHEWAN***

CITY           SKY/WX    TMP DP  RH WIND       PRES   REMARKS
ESTEVAN        CLOUDY    63  52  67 N16       29.89R
KINDERSLEY     CLOUDY    52  45  76 NE10      30.08R
LLOYDMINSTER   PTSUNNY   48  43  81 N5        30.14R
PRINCE ALBERT  CLOUDY    52  45  76 NW5       30.09R
REGINA         CLOUDY    55  48  76 N14       30.01R
YORKTON        MOSUNNY   61  46  59 N12G21    29.98S
N. BATTLEFORD  MOSUNNY   50  43  76 N8        30.13S
LA RONGE       CLOUDY    52  45  76 W9        30.06R
SASKATOON      CLOUDY    52  45  76 N8        30.10S
SWIFT CURRENT  CLOUDY    52  48  87 E18G26    30.01S
$$
NOTE: THESE ARE AUTOMATED STATIONS WITH LIMITED QUALITY CONTROL
      "FAIR" INDICATES FEW OR NO CLOUDS BELOW 12,000 FEET WITH NO
      SIGNIFICANT WEATHER AND/OR OBSTRUCTIONS TO VISIBILITY.
      SKY/WX - SKY CONDITION AND SIGNIFICANT WEATHER.
      TMP - AIR TEMPERATURE.    DP   - DEWPOINT TEMPERATURE.
      RH  - RELATIVE HUMIDITY.  PRES - PRESSURE.
      HX  - HEAT INDEX.         WCI  - WIND CHILL INDEX.
$



USA.gov is the U.S. government's official web portal to all federal, state and local government web resources and services.